Torna al catalogo

STARLINK-5818

AttivoComunicazioniVLEO
NORAD 55785·PAYLOAD·🇺🇸 United States

Lanciato Mar 3, 2023 da Vandenberg Space Force Base

Loading…

Prossimi Passaggi (prossime 24 ore)

TLE

AggiornatoSource: CelesTrak SupGP

Epoca: Sep 15, 2026, 02:42 UTC

1 55785C 23028AW  26258.11298611 -.00045957  00000+0 -38525-2 0  2581
2 55785  70.0001  87.0084 0002844 272.3017 177.4274 14.98342771    16

Traccia STARLINK-5818 in tempo reale con AllMySat

Download on the App Store